Location: Newark
(33.6333°S, 78.8500°W)
Time: 15:12:57
(UTC+00:00)

Tiros 1 despin weight - Pass Details

Date: 20 September 2019
Orbit: 594 x 643 km, 48.2° (Epoch: 14 October)

Event Time Altitude Azimuth Distance (km) Brightness Sun altitude
Rises 03:16:24 0° 356° (N) 2,840 - -48.2°
Reaches altitude 10° 03:19:45 10° 23° (NNE) 1,958 - -48.7°
Maximum altitude 03:21:56 13° 52° (NE) 1,753 - -49.0°
Drops below altitude 10° 03:24:09 10° 81° (E) 1,985 - -49.3°
Sets 03:27:35 0° 107° (ESE) 2,913 - -49.8°
